Starlink 5772

operational
NORAD ID: 56024 Int'l Des: 2023-042 Owner: SPXS Country: US Constellation: starlink
LEOCIRCULAR

Über Starlink 5772

Beschreibung wird geladen...

Live-Position

3D-Globus wird geladen...

Nächste Überflüge

Höhenverlauf

Altitude vs Time

uPlot chart will show altitude changes over time

Zweizeiliger Elementsatz

1 56024U 23042AQ 26061.32687481 .00000340 00000-0 40206-4 0 9995
2 56024 43.0027 83.0274 0001200 269.3243 90.7462 15.02534983161951
Epoch: 2. März 2026 • Age: 30 hours

Aktueller Status

Höhe 567.3 km
Geschwindigkeit 7.58 km/s
Subsatellitenpunkt -32.31°S, 145.27°E
Startdatum 24. März 2023
Alter 2.9 years
Typ internet

Technische Details

Klassifizierung Payload
Masse 305.00 kg
Trockenmasse 290.00 kg
Gesamtmasse 305.00 kg
Länge 0.20 m
Durchmesser 2.80 m
Spannweite 9.00 m
Form Box + pan
Hersteller SPXS
Bus-Typ Starlink
Phasenstatus In Orbit
Besitzer/Staat SPXS/US

Große Konstellationen

Loading constellations...